TimeCDT,TemperatureF,Dew PointF,Humidity,Sea Level PressureIn,VisibilityMPH,Wind Direction,Wind SpeedMPH,Gust SpeedMPH,PrecipitationIn,Events,Conditions,WindDirDegrees,DateUTC
1:15 AM,71.6,69.8,94,29.87,7.0,Calm,Calm,-,N/A,,Clear,0,2012-10-19 06:15:00
1:49 AM,71.6,69.8,94,29.86,7.0,NNW,2.3,-,N/A,,Clear,340,2012-10-19 06:49:00
2:43 AM,69.8,69.8,100,29.85,7.0,North,2.3,-,N/A,,Clear,350,2012-10-19 07:43:00
3:46 AM,71.6,69.8,94,29.86,7.0,NNW,2.3,-,N/A,,Clear,340,2012-10-19 08:46:00
4:46 AM,69.8,69.8,100,29.85,7.0,NW,2.3,-,N/A,,Clear,320,2012-10-19 09:46:00
5:52 AM,69.8,68.0,94,29.86,7.0,NNW,3.5,-,N/A,,Clear,340,2012-10-19 10:52:00
6:48 AM,71.6,69.8,94,29.87,7.0,North,3.5,-,N/A,,Partly Cloudy,360,2012-10-19 11:48:00
7:44 AM,73.4,71.6,94,29.88,7.0,North,2.3,-,N/A,,Partly Cloudy,350,2012-10-19 12:44:00
8:42 AM,82.4,73.4,74,29.89,7.0,NNE,2.3,-,N/A,,Scattered Clouds,20,2012-10-19 13:42:00
9:47 AM,84.2,71.6,66,29.90,7.0,North,4.6,-,N/A,,Scattered Clouds,10,2012-10-19 14:47:00
10:41 AM,86.0,71.6,62,29.90,7.0,East,3.5,-,N/A,,Mostly Cloudy,90,2012-10-19 15:41:00
11:41 AM,86.0,69.8,58,29.89,7.0,North,5.8,-,N/A,,Scattered Clouds,10,2012-10-19 16:41:00
12:45 PM,86.0,71.6,62,29.88,7.0,East,8.1,-,N/A,,Mostly Cloudy,90,2012-10-19 17:45:00
1:42 PM,86.0,71.6,62,29.85,7.0,East,6.9,-,N/A,,Scattered Clouds,80,2012-10-19 18:42:00
2:40 PM,86.0,69.8,58,29.83,8.0,ESE,6.9,-,N/A,,Scattered Clouds,110,2012-10-19 19:40:00
3:41 PM,86.0,71.6,62,29.84,8.0,NE,4.6,-,N/A,,Scattered Clouds,50,2012-10-19 20:41:00
4:40 PM,82.4,69.8,66,29.83,8.0,ENE,4.6,-,N/A,,Mostly Cloudy,60,2012-10-19 21:40:00
5:41 PM,82.4,73.4,74,29.85,8.0,NE,4.6,-,N/A,,Scattered Clouds,40,2012-10-19 22:41:00
6:41 PM,78.8,73.4,83,29.85,8.0,NNE,2.3,-,N/A,,Scattered Clouds,20,2012-10-19 23:41:00
7:44 PM,78.8,71.6,78,29.88,8.0,North,2.3,-,N/A,,Partly Cloudy,10,2012-10-20 00:44:00
8:42 PM,78.8,69.8,74,29.89,8.0,NNE,3.5,-,N/A,,Partly Cloudy,20,2012-10-20 01:42:00
9:48 PM,77.0,69.8,78,29.86,8.0,NE,5.8,-,N/A,,Partly Cloudy,40,2012-10-20 02:48:00
10:47 PM,75.2,69.8,83,29.90,7.0,Calm,Calm,-,N/A,,Partly Cloudy,0,2012-10-20 03:47:00
11:46 PM,75.2,69.8,83,29.89,7.0,Calm,Calm,-,N/A,,Clear,0,2012-10-20 04:46:00